Regional Weather Roundup
Issued by NWS

Home | Current Version | Previous Version | Graphics & Text | Print | Product List | Glossary On
Versions: 1 2 3 4 5 6 7 8 9 10 11 12 13 14 15 16 17 18 19 20 21 22 23 24 25 26 27 28 29 30 31 32 33 34 35 36 37 38 39 40 41 42 43 44 45 46 47 48 49 50
000
ASUS43 KIND 240559
RWRIN

WEATHER ROUNDUP FOR INDIANA
NATIONAL WEATHER SERVICE INDIANAPOLIS IN
100 AM EST MON NOV 24 2014

NOTE: "FAIR" INDICATES FEW OR NO CLOUDS BELOW 12,000 FEET WITH NO
SIGNIFICANT WEATHER AND/OR OBSTRUCTIONS TO VISIBILITY.

* - STATION DOES NOT REPORT WEATHER SUCH AS PRECIPITATION OR FOG.

+ - STATION NOT QUALITY CONTROLLED BY THE NATIONAL WEATHER SERVICE.
    USE DATA WITH CAUTION...ESPECIALLY DEWPOINT AND RELATIVE
    HUMIDITY OBSERVATIONS.

INZ001>003-010>013-019-020-240700-
NORTHWEST INDIANA

CITY           SKY/WX    TMP DP  RH WIND       PRES   REMARKS
VALPARAISO     LGT RAIN  50  48  93 S7        29.10F FOG

$$

LMZ046-743>745-240700-
SOUTHERN LAKE MICHIGAN

STATION/POSITION TIME  TEMP WIND        PRES
                       AIR  DIR/SP/G
                 (UTC) (F)  (DEG/KT/KT) (MB)
MICHIGAN CITY    0500   51  130/  8/  9   N/A

$$

INZ004-005-014>016-021>024-240700-
NORTH CENTRAL INDIANA

CITY           SKY/WX    TMP DP  RH WIND       PRES   REMARKS
GOSHEN         LGT RAIN  53  48  83 SW3       29.08F
6HR MIN TEMP:  51; 6HR MAX TEMP:  61; 6HR PCP:  1.09;

PERU/GRISSOM   LGT RAIN  54  54 100 SW20G30   29.12S
SOUTH BEND     LGT RAIN  50  49  96 SE3       29.10F FOG
6HR MIN TEMP:  49; 6HR MAX TEMP:  52; 6HR PCP:  0.74;


$$

INZ006>009-017-018-025>027-240700-
NORTHEAST INDIANA

CITY           SKY/WX    TMP DP  RH WIND       PRES   REMARKS
ANGOLA *+      CLOUDY    52  43  71 S14       29.10F
FORT WAYNE     LGT RAIN  55  53  93 S22G29    29.11F FOG
6HR MIN TEMP:  50; 6HR MAX TEMP:  55; 6HR PCP:  0.91;


$$

INZ028-029-035-036-043>045-051>053-240700-
WEST CENTRAL INDIANA

CITY           SKY/WX    TMP DP  RH WIND       PRES   REMARKS
GREENCASTLE +  CLOUDY    54  52  94 SW9G21    29.22R
LAFAYETTE      CLOUDY    51  51 100 SW10G21   29.15R
6HR MIN TEMP:  51; 6HR MAX TEMP:  52; 6HR PCP:  0.56;

TERRE HAUTE    CLOUDY    55  52  89 SW15G23   29.23R
6HR MIN TEMP:  52; 6HR MAX TEMP:  55; 6HR PCP:  0.71;


$$

INZ030>032-037>040-046>048-054>057-064-065-240700-
CENTRAL INDIANA

CITY           SKY/WX    TMP DP  RH WIND       PRES   REMARKS
INDIANAPOLIS   CLOUDY    54  52  93 SW24G36   29.20R
6HR MIN TEMP:  51; 6HR MAX TEMP:  54; 6HR PCP:  1.02;

-EAGLE CREEK   CLOUDY    55  54  96 SW18G26   29.20R
6HR MIN TEMP:  52; 6HR MAX TEMP:  55; 6HR PCP:  0.94;

KOKOMO *+      CLOUDY    54  52  94 SW23      29.14R
MT COMFORT *+  CLOUDY    55 N/A N/A SW17G29   29.21R
SHELBYVILLE    CLOUDY    58  55  90 SW21G28   29.23R
6HR MIN TEMP:  54; 6HR MAX TEMP:  58; 6HR PCP:  0.70;


$$

INZ033-034-041-042-049-050-058-059-240700-
EAST CENTRAL INDIANA

CITY           SKY/WX    TMP DP  RH WIND       PRES   REMARKS
MUNCIE         LGT RAIN  57  54  89 SW21G31   29.15F
6HR MIN TEMP:  53; 6HR MAX TEMP:  57; 6HR PCP:  0.79;


$$

INZ060-061-067>069-081>083-085>088-240700-
SOUTHWEST INDIANA

CITY           SKY/WX    TMP DP  RH WIND       PRES   REMARKS
EVANSVILLE     CLOUDY    59  55  87 SW14G23   29.32F
6HR MIN TEMP:  57; 6HR MAX TEMP:  59; 6HR PCP:  0.36;

HUNTINGBURG *+ CLOUDY    57  54  88 SW18      29.34R
6HR MIN TEMP:  55; 6HR MAX TEMP:  57; 6HR PCP:  0.23;


$$

INZ062-063-066-070>080-084-089>092-240700-
SOUTH CENTRAL AND SOUTHEAST INDIANA

CITY           SKY/WX    TMP DP  RH WIND       PRES   REMARKS
BLOOMINGTON    LGT RAIN  56  54  93 SW16G32   29.26R
6HR MIN TEMP:  52; 6HR MAX TEMP:  57; 6HR PCP:  0.66;


$$




USA.gov is the U.S. government's official web portal to all federal, state and local government web resources and services.